| time (UTC) | temp C | wind direction | speed KPH | gust KPH | rain 1hr cm | rain 24hr cm | rain mn cm | humidity % | barometer mb |
| 20260504050453 | 15 | 123 | 0.0 | 0.0 | 0.00 | 0.00 | 0.00 | 79 | 1014.7 |
| 20260504050225 | 15 | 123 | 0.0 | 0.0 | 0.00 | 0.00 | 0.00 | 79 | 1014.6 |
| 20260504045453 | 15 | 123 | 0.0 | 0.0 | 0.00 | 0.00 | 0.00 | 78 | 1014.6 |
| 20260504044946 | 16 | 123 | 0.0 | 0.0 | 0.00 | 0.00 | 0.00 | 78 | 1014.7 |
| 20260504044446 | 16 | 122 | 0.0 | 0.0 | 0.00 | 0.00 | 0.00 | 77 | 1014.7 |
| 20260504043946 | 16 | 123 | 0.0 | 0.0 | 0.00 | 0.00 | 0.00 | 77 | 1014.7 |
| 20260504043447 | 16 | 123 | 0.0 | 0.0 | 0.00 | 0.00 | 0.00 | 76 | 1014.7 |
| 20260504042947 | 16 | 122 | 0.0 | 0.0 | 0.00 | 0.00 | 0.00 | 76 | 1014.7 |
| 20260504042447 | 16 | 123 | 0.0 | 0.0 | 0.00 | 0.00 | 0.00 | 76 | 1014.8 |
| 20260504041943 | 16 | 123 | 0.0 | 0.0 | 0.00 | 0.00 | 0.00 | 75 | 1014.9 |
| 20260504041714 | 16 | 122 | 0.0 | 0.0 | 0.00 | 0.00 | 0.00 | 75 | 1014.8 |
| 20260504040943 | 16 | 122 | 0.0 | 0.0 | 0.00 | 0.00 | 0.00 | 75 | 1014.7 |
| 20260504040442 | 17 | 123 | 0.0 | 0.0 | 0.00 | 0.00 | 0.00 | 74 | 1014.7 |
| 20260504035943 | 17 | 123 | 0.0 | 0.0 | 0.00 | 0.00 | 0.00 | 74 | 1014.7 |
| 20260504035443 | 17 | 123 | 0.0 | 0.0 | 0.00 | 0.00 | 0.00 | 73 | 1014.6 |
| 20260504035215 | 17 | 123 | 0.0 | 0.0 | 0.00 | 0.00 | 0.00 | 72 | 1014.6 |
| 20260504034713 | 17 | 123 | 0.0 | 0.0 | 0.00 | 0.00 | 0.00 | 72 | 1014.6 |
| 20260504033938 | 18 | 122 | 0.0 | 0.0 | 0.00 | 0.00 | 0.00 | 71 | 1014.7 |
| 20260504033443 | 18 | 123 | 0.0 | 6.4 | 0.00 | 0.00 | 0.00 | 69 | 1014.8 |
| 20260504033438 | 18 | 123 | 0.0 | 0.0 | 0.00 | 0.00 | 0.00 | 70 | 1014.9 |
| 20260504032437 | 18 | 123 | 0.0 | 6.4 | 0.00 | 0.00 | 0.00 | 69 | 1014.8 |
| 20260504031937 | 18 | 113 | 0.0 | 0.0 | 0.00 | 0.00 | 0.00 | 69 | 1014.7 |
| 20260504031705 | 18 | 115 | 0.0 | 1.6 | 0.00 | 0.00 | 0.00 | 68 | 1014.6 |
| 20260504030934 | 18 | 133 | 0.0 | 1.6 | 0.00 | 0.00 | 0.00 | 68 | 1014.6 |
| 20260504030434 | 19 | 161 | 0.0 | 3.2 | 0.00 | 0.00 | 0.00 | 68 | 1014.6 |
| 20260504025932 | 19 | 111 | 0.0 | 3.2 | 0.00 | 0.00 | 0.00 | 68 | 1014.6 |
| 20260504025433 | 19 | 103 | 0.0 | 3.2 | 0.00 | 0.00 | 0.00 | 68 | 1014.6 |
| 20260504025206 | 19 | 117 | 0.0 | 4.8 | 0.00 | 0.00 | 0.00 | 68 | 1014.6 |
| 20260504024703 | 19 | 120 | 0.0 | 4.8 | 0.00 | 0.00 | 0.00 | 67 | 1014.5 |
| 20260504023926 | 19 | 110 | 0.0 | 3.2 | 0.00 | 0.00 | 0.00 | 67 | 1014.6 |
| 20260504023426 | 19 | 129 | 0.0 | 1.6 | 0.00 | 0.00 | 0.00 | 66 | 1014.5 |
| 20260504022927 | 19 | 129 | 0.0 | 1.6 | 0.00 | 0.00 | 0.00 | 66 | 1014.4 |
| 20260504022706 | 19 | 89 | 0.0 | 3.2 | 0.00 | 0.00 | 0.00 | 65 | 1014.5 |
| 20260504022427 | 19 | 134 | 0.0 | 1.6 | 0.00 | 0.00 | 0.00 | 65 | 1014.5 |
| 20260504021426 | 20 | 108 | 0.0 | 3.2 | 0.00 | 0.00 | 0.00 | 64 | 1014.4 |
| 20260504020922 | 20 | 174 | 0.0 | 6.4 | 0.00 | 0.00 | 0.00 | 64 | 1014.4 |
| 20260504020423 | 20 | 142 | 0.0 | 6.4 | 0.00 | 0.00 | 0.00 | 63 | 1014.3 |
| 20260504015921 | 20 | 125 | 0.0 | 1.6 | 0.00 | 0.00 | 0.00 | 62 | 1014.3 |
| 20260504015421 | 20 | 92 | 0.0 | 4.8 | 0.00 | 0.00 | 0.00 | 62 | 1014.3 |
| 20260504014919 | 20 | 141 | 0.0 | 4.8 | 0.00 | 0.00 | 0.00 | 61 | 1014.3 |
| 20260504014419 | 20 | 77 | 0.0 | 3.2 | 0.00 | 0.00 | 0.00 | 60 | 1014.3 |
| 20260504013915 | 20 | 97 | 0.0 | 4.8 | 0.00 | 0.00 | 0.00 | 60 | 1014.2 |
| 20260504013412 | 20 | 105 | 0.0 | 4.8 | 0.00 | 0.00 | 0.00 | 58 | 1014.2 |
| 20260504012909 | 21 | 141 | 0.0 | 4.8 | 0.00 | 0.00 | 0.00 | 57 | 1014.1 |
| 20260504012642 | 21 | 82 | 0.0 | 4.8 | 0.00 | 0.00 | 0.00 | 57 | 1014.1 |
| 20260504011908 | 21 | 90 | 0.0 | 6.4 | 0.00 | 0.00 | 0.00 | 57 | 1014.2 |
| 20260504011641 | 21 | 126 | 0.0 | 6.4 | 0.00 | 0.00 | 0.00 | 56 | 1014.2 |
| 20260504010906 | 21 | 107 | 0.0 | 4.8 | 0.00 | 0.00 | 0.00 | 56 | 1014.2 |
| 20260504010404 | 21 | 149 | 1.6 | 11.3 | 0.00 | 0.00 | 0.00 | 55 | 1014.3 |
| 20260504005904 | 21 | 115 | 1.6 | 11.3 | 0.00 | 0.00 | 0.00 | 55 | 1014.1 |
| 20260504005405 | 22 | 98 | 0.0 | 6.4 | 0.00 | 0.00 | 0.00 | 54 | 1014.0 |
| 20260504004903 | 22 | 73 | 1.6 | 6.4 | 0.00 | 0.00 | 0.00 | 54 | 1014.2 |
| 20260504004635 | 22 | 91 | 0.0 | 6.4 | 0.00 | 0.00 | 0.00 | 53 | 1014.1 |
| 20260504003900 | 22 | 79 | 0.0 | 6.4 | 0.00 | 0.00 | 0.00 | 52 | 1014.2 |
| 20260504003359 | 23 | 134 | 1.6 | 8.0 | 0.00 | 0.00 | 0.00 | 51 | 1014.2 |
| 20260504003133 | 23 | 95 | 0.0 | 8.0 | 0.00 | 0.00 | 0.00 | 50 | 1014.1 |
| 20260504002407 | 23 | 137 | 0.0 | 3.2 | 0.00 | 0.00 | 0.00 | 50 | 1014.1 |
| 20260504002401 | 23 | 107 | 0.0 | 3.2 | 0.00 | 0.00 | 0.00 | 50 | 1014.1 |
| 20260504001357 | 23 | 78 | 0.0 | 11.3 | 0.00 | 0.00 | 0.00 | 50 | 1014.1 |
| 20260504000858 | 23 | 122 | 1.6 | 11.3 | 0.00 | 0.00 | 0.00 | 49 | 1014.0 |
| 20260504000401 | 23 | 136 | 1.6 | 9.7 | 0.00 | 0.00 | 0.00 | 48 | 1014.0 |
| 20260504000124 | 24 | 97 | 1.6 | 14.5 | 0.00 | 0.00 | 0.00 | 47 | 1014.0 |
| 20260503235354 | 25 | 81 | 1.6 | 14.5 | 0.00 | 0.00 | 0.00 | 46 | 1014.0 |
| 20260503234854 | 25 | 79 | 1.6 | 8.0 | 0.00 | 0.00 | 0.00 | 45 | 1014.1 |
| 20260503234354 | 25 | 109 | 1.6 | 8.0 | 0.00 | 0.00 | 0.00 | 44 | 1014.1 |
| 20260503233854 | 25 | 206 | 0.0 | 8.0 | 0.00 | 0.00 | 0.00 | 46 | 1014.2 |
| 20260503233354 | 25 | 155 | 1.6 | 6.4 | 0.00 | 0.00 | 0.00 | 46 | 1014.2 |
| 20260503232850 | 25 | 150 | 3.2 | 12.9 | 0.00 | 0.00 | 0.00 | 46 | 1014.2 |
| 20260503232351 | 25 | 86 | 3.2 | 12.9 | 0.00 | 0.00 | 0.00 | 45 | 1014.4 |
| 20260503231851 | 25 | 105 | 1.6 | 14.5 | 0.00 | 0.00 | 0.00 | 45 | 1014.5 |
| 20260503231350 | 25 | 138 | 1.6 | 14.5 | 0.00 | 0.00 | 0.00 | 44 | 1014.4 |
| 20260503230851 | 26 | 100 | 1.6 | 8.0 | 0.00 | 0.00 | 0.00 | 45 | 1014.4 |
| 20260503230351 | 26 | 112 | 3.2 | 9.7 | 0.00 | 0.00 | 0.00 | 44 | 1014.4 |
| 20260503225846 | 26 | 73 | 1.6 | 9.7 | 0.00 | 0.00 | 0.00 | 43 | 1014.4 |
| 20260503225618 | 26 | 82 | 1.6 | 9.7 | 0.00 | 0.00 | 0.00 | 43 | 1014.4 |
| 20260503224846 | 26 | 80 | 1.6 | 9.7 | 0.00 | 0.00 | 0.00 | 43 | 1014.4 |
| 20260503224347 | 26 | 117 | 1.6 | 9.7 | 0.00 | 0.00 | 0.00 | 43 | 1014.6 |
| 20260503223845 | 27 | 124 | 1.6 | 9.7 | 0.00 | 0.00 | 0.00 | 43 | 1014.6 |
| 20260503223347 | 27 | 86 | 1.6 | 9.7 | 0.00 | 0.00 | 0.00 | 43 | 1014.6 |
| 20260503222842 | 27 | 71 | 1.6 | 8.0 | 0.00 | 0.00 | 0.00 | 42 | 1014.6 |
| 20260503222615 | 26 | 224 | 1.6 | 8.0 | 0.00 | 0.00 | 0.00 | 42 | 1014.7 |
| 20260503221843 | 26 | 89 | 1.6 | 8.0 | 0.00 | 0.00 | 0.00 | 41 | 1014.8 |
| 20260503221342 | 26 | 105 | 1.6 | 8.0 | 0.00 | 0.00 | 0.00 | 42 | 1014.9 |
| 20260503220843 | 27 | 117 | 3.2 | 11.3 | 0.00 | 0.00 | 0.00 | 41 | 1015.0 |
| 20260503220343 | 27 | 101 | 1.6 | 11.3 | 0.00 | 0.00 | 0.00 | 43 | 1015.0 |
| 20260503215837 | 27 | 101 | 1.6 | 8.0 | 0.00 | 0.00 | 0.00 | 42 | 1014.9 |
| 20260503215339 | 26 | 95 | 1.6 | 9.7 | 0.00 | 0.00 | 0.00 | 42 | 1015.0 |
| 20260503215110 | 26 | 91 | 3.2 | 9.7 | 0.00 | 0.00 | 0.00 | 37 | 1015.0 |
| 20260503214338 | 26 | 101 | 3.2 | 11.3 | 0.00 | 0.00 | 0.00 | 38 | 1015.0 |
| 20260503213839 | 27 | 129 | 1.6 | 11.3 | 0.00 | 0.00 | 0.00 | 38 | 1015.1 |
| 20260503213339 | 27 | 105 | 1.6 | 9.7 | 0.00 | 0.00 | 0.00 | 38 | 1015.2 |
| 20260503212833 | 27 | 100 | 3.2 | 9.7 | 0.00 | 0.00 | 0.00 | 40 | 1015.3 |
| 20260503212335 | 27 | 101 | 3.2 | 11.3 | 0.00 | 0.00 | 0.00 | 38 | 1015.4 |
| 20260503212104 | 27 | 21 | 1.6 | 11.3 | 0.00 | 0.00 | 0.00 | 34 | 1015.4 |
| 20260503211604 | 27 | 101 | 0.0 | 8.0 | 0.00 | 0.00 | 0.00 | 34 | 1015.4 |
| 20260503210834 | 27 | 96 | 1.6 | 12.9 | 0.00 | 0.00 | 0.00 | 36 | 1015.6 |
| 20260503210334 | 26 | 97 | 3.2 | 12.9 | 0.00 | 0.00 | 0.00 | 36 | 1015.7 |
| 20260503205830 | 27 | 136 | 3.2 | 11.3 | 0.00 | 0.00 | 0.00 | 35 | 1015.8 |
| 20260503205331 | 27 | 113 | 1.6 | 8.0 | 0.00 | 0.00 | 0.00 | 35 | 1015.7 |
| 20260503204829 | 27 | 127 | 1.6 | 12.9 | 0.00 | 0.00 | 0.00 | 37 | 1015.8 |
| 20260503204321 | 27 | 233 | 1.6 | 12.9 | 0.00 | 0.00 | 0.00 | 36 | 1015.9 |
| 20260503203823 | 27 | 203 | 1.6 | 12.9 | 0.00 | 0.00 | 0.00 | 38 | 1016.0 |
| 20260503203322 | 26 | 93 | 3.2 | 12.9 | 0.00 | 0.00 | 0.00 | 34 | 1016.1 |
| 20260503202822 | 27 | 215 | 3.2 | 12.9 | 0.00 | 0.00 | 0.00 | 38 | 1016.1 |
| 20260503202321 | 26 | 115 | 3.2 | 12.9 | 0.00 | 0.00 | 0.00 | 37 | 1016.1 |
| 20260503201822 | 26 | 107 | 4.8 | 12.9 | 0.00 | 0.00 | 0.00 | 35 | 1016.3 |
| 20260503201319 | 26 | 96 | 3.2 | 12.9 | 0.00 | 0.00 | 0.00 | 35 | 1016.4 |
| 20260503201051 | 26 | 48 | 3.2 | 16.1 | 0.00 | 0.00 | 0.00 | 38 | 1016.6 |
| 20260503200320 | 26 | 103 | 3.2 | 16.1 | 0.00 | 0.00 | 0.00 | 36 | 1016.6 |
| 20260503195819 | 26 | 85 | 3.2 | 14.5 | 0.00 | 0.00 | 0.00 | 38 | 1016.7 |
| 20260503195320 | 26 | 71 | 4.8 | 14.5 | 0.00 | 0.00 | 0.00 | 34 | 1016.7 |
| 20260503194821 | 27 | 105 | 3.2 | 14.5 | 0.00 | 0.00 | 0.00 | 36 | 1016.7 |
| 20260503194320 | 27 | 224 | 0.0 | 4.8 | 0.00 | 0.00 | 0.00 | 37 | 1016.8 |
| 20260503193814 | 27 | 228 | 1.6 | 11.3 | 0.00 | 0.00 | 0.00 | 37 | 1016.9 |
| 20260503193313 | 27 | 150 | 1.6 | 11.3 | 0.00 | 0.00 | 0.00 | 35 | 1017.0 |
| 20260503192814 | 27 | 71 | 1.6 | 8.0 | 0.00 | 0.00 | 0.00 | 36 | 1016.9 |
| 20260503192312 | 26 | 100 | 3.2 | 17.7 | 0.00 | 0.00 | 0.00 | 41 | 1017.0 |
| 20260503191812 | 26 | 84 | 3.2 | 17.7 | 0.00 | 0.00 | 0.00 | 39 | 1017.1 |
| 20260503191544 | 26 | 70 | 3.2 | 11.3 | 0.00 | 0.00 | 0.00 | 38 | 1017.3 |
| 20260503190810 | 26 | 121 | 3.2 | 11.3 | 0.00 | 0.00 | 0.00 | 36 | 1017.4 |
| 20260503190309 | 26 | 79 | 1.6 | 9.7 | 0.00 | 0.00 | 0.00 | 38 | 1017.4 |
| 20260503185810 | 26 | 151 | 1.6 | 8.0 | 0.00 | 0.00 | 0.00 | 39 | 1017.5 |
| 20260503185309 | 26 | 56 | 1.6 | 8.0 | 0.00 | 0.00 | 0.00 | 39 | 1017.5 |
| 20260503184811 | 26 | 134 | 1.6 | 8.0 | 0.00 | 0.00 | 0.00 | 39 | 1017.6 |
| 20260503184310 | 26 | 125 | 3.2 | 11.3 | 0.00 | 0.00 | 0.00 | 38 | 1017.7 |
| 20260503184047 | 26 | 60 | 1.6 | 11.3 | 0.00 | 0.00 | 0.00 | 38 | 1017.8 |
| 20260503183305 | 26 | 81 | 1.6 | 11.3 | 0.00 | 0.00 | 0.00 | 40 | 1017.9 |
| 20260503182810 | 26 | 108 | 1.6 | 11.3 | 0.00 | 0.00 | 0.00 | 40 | 1018.0 |
| 20260503182306 | 26 | 103 | 1.6 | 11.3 | 0.00 | 0.00 | 0.00 | 41 | 1018.0 |
| 20260503182038 | 25 | 68 | 3.2 | 11.3 | 0.00 | 0.00 | 0.00 | 41 | 1018.1 |
| 20260503181305 | 26 | 86 | 4.8 | 11.3 | 0.00 | 0.00 | 0.00 | 39 | 1018.1 |
| 20260503180805 | 26 | 69 | 3.2 | 11.3 | 0.00 | 0.00 | 0.00 | 40 | 1018.2 |
| 20260503180306 | 26 | 89 | 1.6 | 12.9 | 0.00 | 0.00 | 0.00 | 41 | 1018.3 |
| 20260503175801 | 26 | 60 | 1.6 | 12.9 | 0.00 | 0.00 | 0.00 | 38 | 1018.4 |
| 20260503175301 | 26 | 145 | 1.6 | 8.0 | 0.00 | 0.00 | 0.00 | 38 | 1018.5 |
| 20260503174801 | 25 | 210 | 3.2 | 11.3 | 0.00 | 0.00 | 0.00 | 40 | 1018.6 |
| 20260503174257 | 25 | 37 | 4.8 | 14.5 | 0.00 | 0.00 | 0.00 | 37 | 1018.7 |
| 20260503173805 | 25 | 73 | 3.2 | 9.7 | 0.00 | 0.00 | 0.00 | 40 | 1018.9 |
| 20260503173758 | 25 | 93 | 4.8 | 14.5 | 0.00 | 0.00 | 0.00 | 39 | 1018.8 |
| 20260503172755 | 25 | 77 | 1.6 | 8.0 | 0.00 | 0.00 | 0.00 | 39 | 1018.9 |
| 20260503172258 | 25 | 86 | 1.6 | 9.7 | 0.00 | 0.00 | 0.00 | 40 | 1019.0 |
| 20260503171751 | 25 | 210 | 1.6 | 9.7 | 0.00 | 0.00 | 0.00 | 41 | 1019.1 |
| 20260503171252 | 25 | 141 | 1.6 | 9.7 | 0.00 | 0.00 | 0.00 | 41 | 1019.1 |
| 20260503170752 | 25 | 125 | 1.6 | 12.9 | 0.00 | 0.00 | 0.00 | 41 | 1019.1 |
| 20260503170252 | 25 | 89 | 1.6 | 12.9 | 0.00 | 0.00 | 0.00 | 40 | 1019.2 |